DECAYED
Showing default

FLOCK 4Y 4, 55055 (Decayed)

Orbit data source: Space-Track

FLOCK 4Y 4, 55055 was a payload satellite owned by Planet (US) in LEO that was launched on Tue, 03 Jan 2023 UTC via an FALCON 9 launch vehicle from the Air Force Eastern Test Range (AFETR). Payload-class satellites include a variety of spacecraft equipped with specific instruments for various scientific and technological missions. These include communications satellites like Starlink; space stations such as the ISS; scientific satellites like the Hubble; Earth observation satellites from companies like Planet Labs, Umbra, and HawkEye 360; GPS; miniature CubeSats for education and research; and military/defense satellites.

Not visible in the next 10 days
Identifier
55055, 2023-001AY
Orbit
Decayed
Country
Flag of USUS
Related business
Manufacturer
Planet
Mission
Decayed Commercial Imaging
Bus & Motor
CUBESAT 3U, Unknown motor
Mass
5.7 kg wet, 5.7 kg dry
Launch date (UTC)
2023-01-03 (4 years ago)
Launch vehicle
FALCON 9
Launch site
Air Force Eastern Test Range (AFETR)
Object type
Payload
Rocket body
Debris
Shape & HBR
Box + 2 Pan, 1.0 m
Radar Cross Section
0.108 m², Medium (>0.1 m² and < 1m²)

Expand to show TLE details & history
Last TLE update: 1 year ago

TLE from 1 year ago
0 FLOCK 4Y 4
1 55055U 23001AY  25062.25736314  .16914482  25843-5  58547-3 0  9996
2 55055  97.3400 135.3909 0010231 244.9930 115.0309 16.43636492120784
Epoch: 2025-03-03T06:10Z
TLE epoch observation values (Epoch: 2025-03-03T06:10:36.175Z)
Latitude
-0.00006°
Longitude
-118.53755°
Altitude
162.24 km
Speed
7.807 km/s
True Right ascension
09h 01m 33s
True Declination
0° 00' 00"
Sunlit
Object was in full shadow at epoch
Visualization orbit readout
Latitude
Unknown
Longitude
Unknown
Altitude
Unknown
Speed
Unknown
Apparent Right ascension
Unknown
Apparent Declination
Unknown
Sunlit
N/A
Visualization observer readout
Local Sidereal Time
17:50:25
Azimuth
Unknown
Elevation
Unknown
Doppler factor
Unknown
Orbital elements
Apogee altitude
159.629 km
Perigee altitude
146.265 km
Semi-major axis
6,531.084 km
Eccentricity
0.00102
Inclination
97.34°
RAAN
135.3909°
Arg. of periapsis
244.993°
True anomaly
115.13707°
Mean anomaly
115.0309°
Eccentric anomaly
115.08399°
Mean motion
4.11212 °/min
Orbital period
87.55 mins
BSTAR
0.00058547
Loading maneuver chart data...
Computing Atmospheric mass density...
Loading historical data...
Loading historical data...
Loading historical data...
Loading historical data...
Loading historical data...
Loading historical data...
Loading historical data...

Documentation

Showing up to 5 results
|